Other Surface Observations
Issued by NWS Charleston, SC

Home | Current Version | Previous Version | Text Only | Print | Product List | Glossary On
Versions: 1 2 3 4 5 6 7 8 9 10 11 12 13 14 15 16 17 18 19 20 21 22 23 24 25 26 27 28 29 30 31 32 33 34 35 36 37 38 39 40 41 42 43 44 45 46 47 48 49 50
000
SXUS52 KCHS 281025
OSOCHS

MARINE OBSERVATIONS
NATIONAL WEATHER SERVICE CHARLESTON SC
500 AM EST SUN DEC 28 2014

...DOWNTOWN CHARLESTON AND HARBOR...

CITY           SKY/WX    TMP DP  RH WIND       PRES   REMARKS
WATERFRONT PRK   N/A     54 N/A N/A CALM        N/A
FORT JOHNSON   NOT AVBL

...LAKE MOULTRIE...

CITY           SKY/WX    TMP DP  RH WIND       PRES   REMARKS
PINOPOLIS        N/A     61  52  72 CALM      30.05

...LAKE AND SUPPLEMENTAL COASTAL OBSERVATIONS...

STATION/POSITION TIME  TEMP    WIND        PRES    WAVE   SWELL
                       AIR SEA DIR/SP/G            HT/PER HT/PER/DIR
                 (UTC) (F)     (DEG/KT/KT) (MB)    (FT/S) (FT/S/D)
FORT PULASKI     1000   56 56  220/  1/  2 1020.3F
SAPELO ISLAND    1000   53     190/  1     1020.0S
UPR LAKE MARION  NOT AVBL
WINYAH BAY       1000   52        CALM     1019.0S
LAKE MURRAY      1000   54     280/  4/  7 1020.7R
ACE BASIN NERRS  1000   51        CALM     1020.0S


...C-MAN AND BUOY OBSERVATIONS...

STATION/POSITION TIME  TEMP    WIND        PRES    WAVE   SWELL
                       AIR SEA DIR/SP/G            HT/PER HT/PER/DIR
                 (UTC) (F)     (DEG/KT/KT) (MB)    (FT/S) (FT/S/D)
BUOY 41004       1000   72 74  210/  8/  8 1019.6F   2/15   2/15
BUOY 41008       1000   60 59  100/  2/  4 1020.2F   3/16   3/ 50/16
FOLLY BEACH CMAN 1000   56     150/  5/  6 1020.1F
CAPERS NS BUOY   0900   56      CALM  /  2   N/A
FRIPP NS BUOY    NOT AVBL
5E ST. MARYS GA  1000      60                N/A     2/18   2/ 80/18


STATION/POSITION TIME  TEMP    WIND        PRES    WAVE   SWELL
                       AIR SEA DIR/SP/G            HT/PER HT/PER/DIR
                 (UTC) (F)     (DEG/KT/KT) (MB)    (FT/S) (FT/S/D)
FRYING PAN BUOY  1000   70 68  200/ 12/ 14 1020.8F   5/15   5/120/15
BUOY 41025       1000   69                 1020.3F   4/14
CAPE LOOKOUT NC  1000   58      CALM  /  3 1020.1F
BUOY 41002       0910   71 74  190/ 12/ 14 1022.1F   5/14   5/ 70/14
BUOY 41010       1000   73 77  130/ 10/ 12 1020.4F   5/16   5/100/16
ST AUGUSTINE FL  1000   61     290/  2/  3 1020.8F

$$



USA.gov is the U.S. government's official web portal to all federal, state and local government web resources and services.